This demonstration page uses our WeatherBlox Daily Observations layout. Learn more.

38.89511, -77.03637

Hourly Observations for June 24, 2018

Temp ( °F °C ) Dew Point ( °F °C ) Humidity (%) Winds ( mph kmh ) Pressure ( in mb ) Visibility ( mi km ) Precip ( " mm )
12:52 am 00:52 Partly Cloudy 73 22.8 70 21.1 90 90 Calm 29.83 1010 10 16.09344 0 0
1:52 am 01:52 Partly Cloudy 73 22.8 70 21.1 90 90 Calm 29.83 1010 9 14.484096 0 0
2:12 am 02:12 Partly Cloudy 72 22.2 69 20.6 91 91 SW 5 7 29.83 1010 9 14.484096 0 0
2:17 am 02:17 Mostly Cloudy 72 22.2 69 20.6 91 91 SSW 5 7 29.83 1010 9 14.484096 0 0
2:29 am 02:29 Mostly Cloudy 72 22.2 70 21.1 94 94 WSW 3 6 29.83 1010 9 14.484096 0 0
2:52 am 02:52 Mostly Cloudy 73 22.8 70 21.1 90 90 Calm 29.83 1010 9 14.484096 0 0
3:52 am 03:52 Mostly Clear N/A N/A N/A undefined N/A 29.83 1010 N/A 0 0
4:52 am 04:52 Mostly Cloudy 72 22 70 21 94 94 Calm 29.83 1010 9 14.484096 0 0
5:52 am 05:52 Mostly Cloudy 72 22 70 21 94 94 SSW 3 6 29.85 1011 10 16.09344 0 0
6:52 am 06:52 Mostly Cloudy 72 22 70 21 94 94 Calm 29.85 1011 10 16.09344 0 0
7:52 am 07:52 Mostly Cloudy 73 23 70 21 89 89 Calm 29.85 1011 10 16.09344 0 0
8:52 am 08:52 Mostly Cloudy 75 24 72 22 89 89 S 6 9 29.85 1011 10 16.09344 0 0
9:52 am 09:52 Mostly Cloudy 75 24 72 22 89 89 S 7 11 29.85 1011 10 16.09344 0 0
10:52 am 10:52 Mostly Cloudy 79 26 72 22 79 79 S 6 9 29.85 1011 10 16.09344 0 0
11:52 am 11:52 Mostly Cloudy 83 28.3 72 22.2 70 70 SSE 6 9 29.85 1011 10 16.09344 0 0
12:52 pm 12:52 Mostly Cloudy 90 32 66 19 46 46 W 9 15 29.88 1012 10 16.09344 0 0
1:52 pm 13:52 Mostly Cloudy 90 32.2 66 18.9 45 45 WNW 10 17 29.83 1010 10 16.09344 0 0
2:29 pm 14:29 Mostly Cloudy with Nearby Thunderstorms 89 31.7 66 18.9 47 47 W 12 19 29.83 1010 10 16.09344 0 0
2:44 pm 14:44 Mostly Cloudy 88 31.1 65 18.3 46 46 W 8 13 29.83 1010 10 16.09344 0 0
2:52 pm 14:52 Mostly Cloudy 88 31.1 65 18.3 46 46 WNW 9 15 29.83 1010 10 16.09344 0 0
3:52 pm 15:52 Mostly Cloudy with Light Rain 88 31.1 67 19.4 50 50 WNW 12 19 29.83 1010 10 16.09344 0.001 0.001
4:52 pm 16:52 Mostly Cloudy with Nearby Thunderstorms 85 29.4 68 20 57 57 WNW 5 7 29.83 1010 10 16.09344 0.001 0.001
5:04 pm 17:04 Mostly Cloudy with Thunderstorms 85 29.4 68 20 57 57 WNW 9 15 29.83 1010 10 16.09344 0 0
5:38 pm 17:38 Mostly Cloudy with Nearby Thunderstorms 86 30 68 20 55 55 WSW 7 11 29.83 1010 10 16.09344 0 0
5:52 pm 17:52 Mostly Cloudy 86 30 68 20 55 55 SSW 9 15 29.83 1010 10 16.09344 0 0
6:52 pm 18:52 Mostly Cloudy 85 29.4 69 20.6 59 59 SW 10 17 29.83 1010 10 16.09344 0 0
7:52 pm 19:52 Mostly Cloudy 81 27.2 72 22.2 74 74 S 8 13 29.83 1010 10 16.09344 0 0
8:52 pm 20:52 Mostly Cloudy 79 26.1 70 21.1 74 74 ENE 9 15 29.85 1011 10 16.09344 0 0
9:01 pm 21:01 Mostly Cloudy 79 26.1 67 19.4 67 67 NE 6 9 29.88 1012 10 16.09344 0 0
9:30 pm 21:30 Mostly Cloudy with Light Rain 78 25.6 69 20.6 74 74 N 12 19 29.88 1012 8 12.874752 0.001 0.001
9:35 pm 21:35 Cloudy with Heavy Rain 75 23.9 70 21.1 84 84 N 7 11 29.91 1013 4 6.437376 0.05 1.27
9:38 pm 21:38 Cloudy with Rain 75 23.9 70 21.1 84 84 N 7 11 29.91 1013 3 4.828032 0.08 2.032
9:50 pm 21:50 Cloudy with Light Thunderstorms 75 24 70 21 83 83 Calm 29.91 1013 7 11.265408 0.1 2.54
9:52 pm 21:52 Cloudy with Light Thunderstorms 75 23.9 69 20.6 82 82 SW 5 7 29.88 1012 8 12.874752 0.11 2.794
10:09 pm 22:09 Mostly Cloudy 75 23.9 70 21.1 84 84 S 10 17 29.91 1013 10 16.09344 0.001 0.001
10:52 pm 22:52 Mostly Cloudy 73 22.8 69 20.6 87 87 SSE 5 7 29.91 1013 10 16.09344 0.001 0.001
11:52 pm 23:52 Partly Cloudy 73 22.8 69 20.6 87 87 SSW 5 7 29.91 1013 10 16.09344 0 0

Powered by AerisWeather